EW5026 Weather Reports


Display with metric or nautical units.
time (UTC)temp
F
wind
direction
speed
MPH
gust
MPH
rain 1hr
in
rain 24hr
in
rain mn
in
humidity
%
barometer
mb
20220701161544 77 261 4.0 7.0 0.00 0.00 0.00 74 1012.8
20220701160041 77 214 3.0 7.0 0.00 0.00 0.00 75 1012.7
20220701154540 77 266 3.0 6.0 0.00 0.00 0.00 76 1012.5
20220701153038 76 225 4.0 7.0 0.00 0.00 0.00 76 1012.5
20220701151540 76 234 3.0 5.0 0.00 0.00 0.00 76 1012.6
20220701150038 76 246 3.0 7.0 0.00 0.00 0.00 76 1012.4
20220701144545 76 256 4.0 9.0 0.00 0.00 0.00 75 1012.3
20220701143038 76 254 4.0 8.0 0.00 0.00 0.00 76 1012.3
20220701141532 76 252 5.0 7.0 0.00 0.00 0.00 79 1012.1
20220701140034 75 360 3.0 6.0 0.00 0.00 0.00 82 1012.0
20220701134528 74 225 3.0 5.0 0.00 0.00 0.00 82 1012.2
20220701133027 74 231 2.0 6.0 0.00 0.00 0.00 82 1012.2
20220701131526 74 254 3.0 5.0 0.00 0.00 0.00 81 1012.2
20220701130025 74 240 3.0 5.0 0.00 0.00 0.00 82 1012.2
20220701124526 74 259 5.0 9.0 0.00 0.00 0.00 83 1012.1
20220701123021 73 181 4.0 7.0 0.00 0.00 0.00 85 1012.0
20220701121526 72 226 3.0 8.0 0.00 0.00 0.00 86 1012.0
20220701120015 71 200 4.0 7.0 0.00 0.00 0.00 89 1011.9
20220701114513 70 209 3.0 5.0 0.00 0.00 0.00 89 1011.9
20220701113011 70 201 2.0 5.0 0.00 0.00 0.00 90 1011.7
20220701111509 69 207 3.0 5.0 0.00 0.00 0.00 90 1012.1
20220701110007 69 360 3.0 5.0 0.00 0.00 0.00 90 1012.1
20220701104505 69 192 2.0 5.0 0.00 0.00 0.00 89 1012.0
20220701103005 69 225 4.0 6.0 0.00 0.00 0.00 88 1012.0
20220701101504 69 211 3.0 6.0 0.00 0.00 0.00 88 1012.0
20220701100002 69 215 4.0 6.0 0.00 0.00 0.00 88 1011.9
20220701094505 69 190 3.0 6.0 0.00 0.00 0.00 88 1012.0
20220701093001 69 204 3.0 6.0 0.00 0.00 0.00 88 1012.0
20220701091600 69 221 4.0 8.0 0.00 0.00 0.00 88 1012.0
20220701090057 68 206 4.0 7.0 0.00 0.00 0.00 90 1012.0
20220701084552 66 200 3.0 6.0 0.00 0.00 0.00 91 1012.0
20220701083050 65 206 3.0 4.0 0.00 0.00 0.00 89 1012.0
20220701081547 65 184 3.0 4.0 0.00 0.00 0.00 89 1012.1
20220701080046 64 196 2.0 4.0 0.00 0.00 0.00 88 1012.2
20220701074546 64 187 2.0 4.0 0.00 0.00 0.00 88 1012.2
20220701073050 64 189 2.0 3.0 0.00 0.00 0.00 88 1012.3
20220701071542 64 200 2.0 3.0 0.00 0.00 0.00 87 1012.4
20220701070044 64 200 1.0 3.0 0.00 0.00 0.00 86 1012.6
20220701064542 64 200 1.0 3.0 0.00 0.00 0.00 86 1012.7
20220701063040 64 200 2.0 3.0 0.00 0.00 0.00 86 1012.8
20220701061539 64 200 1.0 3.0 0.00 0.00 0.00 86 1012.8
20220701060041 64 200 2.0 3.0 0.00 0.00 0.00 87 1012.9
20220701054540 64 200 2.0 3.0 0.00 0.00 0.00 87 1012.9
20220701053035 64 200 0.0 2.0 0.00 0.00 0.00 86 1013.1
20220701051535 64 200 1.0 3.0 0.00 0.00 0.00 87 1013.1
20220701050031 64 200 2.0 4.0 0.00 0.00 0.00 87 1012.9
20220701044535 64 200 2.0 4.0 0.00 0.00 0.00 87 1012.8
20220701043034 64 194 3.0 4.0 0.00 0.00 0.00 87 1012.8
20220701041536 65 173 2.0 3.0 0.00 0.00 0.00 85 1013.0
20220701040032 65 173 0.0 3.0 0.00 0.00 0.00 84 1013.3
20220701034531 66 173 1.0 2.0 0.00 0.00 0.00 85 1013.3
20220701033033 66 173 1.0 2.0 0.00 0.00 0.00 85 1013.3
20220701031526 66 173 1.0 3.0 0.00 0.00 0.00 85 1013.3
20220701030026 67 204 2.0 3.0 0.00 0.00 0.00 83 1013.2
20220701024524 68 204 1.0 3.0 0.00 0.00 0.00 83 1013.1
20220701023033 69 204 1.0 2.0 0.00 0.00 0.00 81 1012.8
20220701021523 70 204 2.0 3.0 0.00 0.00 0.00 79 1012.6
20220701020029 72 204 1.0 3.0 0.00 0.00 0.00 76 1012.6
20220701014527 73 153 1.0 3.0 0.00 0.00 0.00 71 1012.4
20220701013021 75 213 0.0 2.0 0.00 0.00 0.00 68 1012.4
20220701011520 77 202 2.0 4.0 0.00 0.00 0.00 63 1012.3
20220701010020 79 197 3.0 5.0 0.00 0.00 0.00 61 1012.3
20220701004519 81 205 2.0 4.0 0.00 0.00 0.00 61 1012.4
20220701003018 82 215 2.0 5.0 0.00 0.00 0.00 58 1012.5
20220701001517 83 227 4.0 8.0 0.00 0.00 0.00 54 1012.7
20220701000017 84 206 5.0 9.0 0.00 0.00 0.00 52 1012.5
20220630234516 83 198 4.0 8.0 0.00 0.00 0.00 55 1012.5
20220630233014 83 199 5.0 8.0 0.00 0.00 0.00 53 1012.5
20220630231514 84 203 4.0 9.0 0.00 0.00 0.00 53 1012.6
20220630230013 85 238 6.0 11.0 0.00 0.00 0.00 50 1012.7
20220630224514 85 215 6.0 12.0 0.00 0.00 0.00 49 1012.7
20220630223011 86 360 6.0 12.0 0.00 0.00 0.00 48 1012.7
20220630221512 86 214 7.0 13.0 0.00 0.00 0.00 46 1012.9
20220630220009 86 360 6.0 14.0 0.00 0.00 0.00 47 1013.0
20220630214508 87 209 8.0 13.0 0.00 0.00 0.00 43 1013.1
20220630213005 88 229 9.0 13.0 0.00 0.00 0.00 43 1013.2
20220630211504 87 184 9.0 14.0 0.00 0.00 0.00 45 1013.2
20220630210002 88 213 8.0 14.0 0.00 0.00 0.00 45 1013.4
20220630204501 88 209 7.0 13.0 0.00 0.00 0.00 48 1013.4
20220630203102 88 223 8.0 19.0 0.00 0.00 0.00 48 1013.5
20220630201603 88 188 8.0 16.0 0.00 0.00 0.00 47 1013.6
20220630200116 88 180 8.0 14.0 0.00 0.00 0.00 51 1013.6
20220630194555 87 235 9.0 14.0 0.00 0.00 0.00 50 1013.7
20220630193054 87 198 9.0 15.0 0.00 0.00 0.00 51 1013.7
20220630191550 87 210 8.0 16.0 0.00 0.00 0.00 52 1014.2
20220630190048 87 214 8.0 16.0 0.00 0.00 0.00 54 1014.3
20220630184547 86 360 9.0 16.0 0.00 0.00 0.00 53 1014.4
20220630183045 86 204 10.0 17.0 0.00 0.00 0.00 53 1014.6
20220630181544 86 181 9.0 18.0 0.00 0.00 0.00 54 1014.8
20220630180042 86 201 10.0 18.0 0.00 0.00 0.00 54 1015.1
20220630174538 85 217 8.0 14.0 0.00 0.00 0.00 55 1015.3
20220630173042 85 229 7.0 16.0 0.00 0.00 0.00 57 1015.6
20220630171532 85 171 9.0 16.0 0.00 0.00 0.00 55 1015.8
20220630170031 84 211 10.0 15.0 0.00 0.00 0.00 56 1016.1
20220630164533 84 217 10.0 15.0 0.00 0.00 0.00 56 1016.3
20220630163027 83 172 10.0 15.0 0.00 0.00 0.00 55 1016.4